Weather in Lymington

United Kingdom     50°45′42″N   1°32′32″W
temp.,
°C
wind,
m/s
gust,
m/s
humid.,
%
clouds,
%
prec.,
mm/h
press.,
hPa
HPBL,
m
7 may, fri
fri701:00+3nnw48840 0.1 1013158
04:00+2nw49870 0.0 1014196
07:00+4nnw36800 0.0 1016167
10:00+10w23574 0.0 10171024
13:00+10ssw76615 0.1 10181031
16:00+10sw6658100 0.0 1017706
19:00+9ssw346098 0.0 1017383
22:00+7se4566100 0.0 1016177
8 may, sat
sat801:00+9se51065100 0.0 1013491
04:00+9se71395100 1.3 1009648
07:00+10s91798100 6.5 1005546
10:00+12ssw121994100 4.0 1004829
13:00+12ssw101890100 4.1 1003777
16:00+14ssw81782100 0.0 1003807
19:00+13ssw918810 0.0 1002681
22:00+12ssw817830 0.0 1001584
9 may, sun
sun901:00+12ssw715860 0.0 1000513
04:00+12ssw7148223 0.0 998402
07:00+12ssw71384100 0.0 997495
10:00+14s71379100 0.0 997679
13:00+15s6107228 0.0 997693
16:00+15ssw3574100 0.0 995340
19:00+12w5981100 0.0 995376
22:00+10ssw4894100 0.6 996329
10 may, mon
mon1001:00+10ssw61293100 0.6 996535
04:00+10ssw9149365 0.1 997732
07:00+10ssw9138821 0.3 999883
10:00+11sw10148736 0.6 1001984
13:00+12ssw912773 1.0 10041066
16:00+12ssw610715 0.0 1004876
19:00+12s36735 0.0 1004322
22:00+10se4108549 0.0 1005179
11 may, tue
tue1101:00+11s6118311 0.1 1005382
04:00+10ssw5109167 0.0 1005380
07:00+10s4890100 0.0 1006511
10:00+12s56786 0.0 1007754
13:00+13s67715 0.0 1008890
16:00+13s576743 0.0 1008738
19:00+12s487370 0.0 1008466
22:00+10ssw599358 0.1 1010277